This is the latest recevied weather packets stored in our database for station/object DH0DM-13. If no packets are shown the sender has not sent any weather packets the latest 10 day(s).
| Time | Temp. | Humidity | Pressure | Rain* | Wind** | Luminosity | Snow |
|---|---|---|---|---|---|---|---|
| 1787844752 | 26.11° C | 51% | 990.4 hPa | 0 mm | 6.71 m/s, 61° | - | - |
| 1787844151 | 26.11° C | 51% | 990.5 hPa | 0 mm | 4.92 m/s, 85° | - | - |
| 1787843550 | 26.11° C | 51% | 990.7 hPa | 0 mm | 14.31 m/s, 55° | - | - |
| 1787842949 | 26.67° C | 52% | 990.5 hPa | 0 mm | 5.81 m/s, 81° | - | - |
| 1787842349 | 26.67° C | 51% | 990.5 hPa | 0 mm | 8.49 m/s, 81° | - | - |
| 1787841748 | 26.67° C | 52% | 990.4 hPa | 0 mm | 6.71 m/s, 75° | - | - |
| 1787841147 | 26.67° C | 51% | 990.5 hPa | 0 mm | 13.86 m/s, 77° | - | - |
| 1787840546 | 27.22° C | 50% | 990.6 hPa | 0 mm | 14.75 m/s, 93° | - | - |
| 1787839945 | 26.67° C | 51% | 990.7 hPa | 0 mm | 4.92 m/s, 25° | - | - |
| 1787839344 | 26.67° C | 51% | 990.8 hPa | 0 mm | 4.92 m/s, 84° | - | - |
| 1787838743 | 26.67° C | 51% | 990.7 hPa | 0 mm | 9.83 m/s, 66° | - | - |
| 1787838142 | 26.67° C | 51% | 991 hPa | 0 mm | 7.15 m/s, 182° | - | - |
| 1787837541 | 26.67° C | 52% | 990.9 hPa | 0 mm | 5.36 m/s, 68° | - | - |
| 1787836940 | 26.67° C | 51% | 990.9 hPa | 0 mm | 6.71 m/s, 49° | - | - |
| 1787836339 | 26.11° C | 51% | 991.1 hPa | 0 mm | 12.52 m/s, 76° | - | - |
| 1787835738 | 26.67° C | 51% | 991.2 hPa | 0 mm | 9.83 m/s, 83° | - | - |
| 1787835137 | 26.11° C | 52% | 991.3 hPa | 0 mm | 7.15 m/s, 80° | - | - |
| 1787834537 | 26.11° C | 51% | 991.1 hPa | 0 mm | 7.6 m/s, 66° | - | - |
| 1787833936 | 25.56° C | 53% | 991.1 hPa | 0 mm | 4.92 m/s, 142° | - | - |
| 1787833335 | 25.56° C | 54% | 991.4 hPa | 0 mm | 4.92 m/s, 354° | - | - |
| 1787832734 | 25.56° C | 54% | 991.3 hPa | 0 mm | 8.05 m/s, 82° | - | - |
| 1787832133 | 25° C | 55% | 991.6 hPa | 0 mm | 4.02 m/s, 11° | - | - |
| 1787831532 | 25.56° C | 55% | 991.5 hPa | 0 mm | 8.49 m/s, 56° | - | - |
| 1787830931 | 25° C | 56% | 991.5 hPa | 0 mm | 1.34 m/s, 336° | - | - |
| 1787830330 | 25° C | 56% | 991.6 hPa | 0 mm | 0.89 m/s, 112° | - | - |
* Rain since midnight (hover to see other rain measurements)
** Current wind speed in m/s (hover to see current wind gust speed)